Location: La Coruña
(43.3623°N, 8.4115°W)
Time: 10:24:04
(UTC+01:00)

STARLINK-1104 - Pass Details

Date: 18 January 2020
Orbit: 530 x 532 km, 53.0° (Epoch: 18 February)

Event Time Altitude Azimuth Distance (km) Brightness Sun altitude
Rises 19:12:39 0° 243° (WSW) 2,652 9.4 -8.5°
Reaches altitude 10° 19:14:53 10° 247° (WSW) 1,764 7.9 -8.9°
Maximum altitude 19:18:51 61° 328° (NNW) 599 3.9 -9.6°
Enters shadow 19:22:26 12° 49° (NE) 1,618 5.4 -10.2°
